{"data":{"norad_id":48459,"intl_designator":"2021-040AH","name":"STARLINK-2579","alt_names":[],"object_type":"PAYLOAD","status":"ACTIVE","operator":null,"country":"US","launch_date":"2021-05-09","launch_site_code":"AFETR","launch_vehicle":null,"mission":null,"orbit_class":"UNKNOWN","rcs_meters":null,"size_class":null,"mass_kg":null,"dimensions":null,"purposes":["comms"],"wikipedia_slug":null,"has_3d_model":false,"image_url":null,"decayed_at":null,"tle_current":{"epoch":"2026-09-19T19:40:50.356992Z","epoch_age_seconds":96028,"freshness":"FRESH","line1":"1 48459U 21040AH  26262.82002728  .00001799  00000+0  69693-4 0  9996","line2":"2 48459  53.1617 354.7131 0001170  92.3031 267.8104 15.31715583296448","mean_motion":15.31715583,"eccentricity":0.000117,"inclination_deg":53.1617,"raan_deg":354.7131,"arg_perigee_deg":92.3031,"mean_anomaly_deg":267.8104,"bstar":6.9693e-5,"rev_number":29644,"period_min":94.012231512304,"perigee_km":469.89223033375,"apogee_km":471.49485668093,"semimajor_km":6848.8305435073,"source":"CELESTRAK","updated_at":"2026-09-20T09:00:39.127658Z"}}}